Zurück zum Katalog

GRUS-3B

AktivWissenschaftSSO
NORAD 69918·PAYLOAD·🇫🇮 Finland

Gestartet Jul 7, 2026 von Vandenberg Space Force Base

Loading…

Nächste Überflüge (nächste 24 Stunden)

TLE

AktuellSource: Space-Track

Epoche: Sep 14, 2026, 03:52 UTC

1 69918U 26156BB  26257.16155677  .00000632  00000-0  68185-4 0  9996
2 69918  97.7472 156.4800 0004924 292.1087  67.9609 14.91825705 10261

Verfolge GRUS-3B in Echtzeit mit AllMySat

Download on the App Store